Location: Borojevi?i
(45.0486°N, 16.2297°E)
Time: 01:56:28
(UTC+00:00)

CZ-2C R/B - Pass Details

Date: 08 August 2020
Orbit: 785 x 870 km, 98.3° (Epoch: 25 September)

Event Time Altitude Azimuth Distance (km) Brightness Sun altitude
Rises 18:36:21 0° 16° (NNE) 3,287 5.9 -4.7°
Reaches altitude 10° 18:38:42 10° 20° (NNE) 2,354 5.2 -5.1°
Maximum altitude 18:43:50 63° 101° (E) 877 2.6 -5.9°
Drops below altitude 10° 18:48:59 10° 183° (S) 2,355 4.8 -6.7°
Sets 18:51:20 0° 186° (S) 3,289 5.5 -7.0°
